Time,TemperatureF,DewpointF,PressureIn,WindDirection,WindDirectionDegrees,WindSpeedMPH,WindSpeedGustMPH,Humidity,HourlyPrecipIn,Conditions,Clouds,dailyrainin,SoftwareType,DateUTC
2013-01-13 00:02:00,44.4,44.1,30.16,SSE,154,0.0,0.0,99,0.00,,,0.00,Wunderground v.1.15,2013-01-13 05:02:00,
2013-01-13 00:04:00,44.4,44.1,30.16,SSE,154,0.0,0.0,99,0.00,,,0.00,Wunderground v.1.15,2013-01-13 05:04:00,
2013-01-13 00:05:00,44.4,44.1,30.16,SSE,154,0.0,0.0,99,0.00,,,0.00,Wunderground v.1.15,2013-01-13 05:05:00,
2013-01-13 00:06:00,44.4,44.1,30.17,SSE,154,0.0,0.0,99,0.00,,,0.00,Wunderground v.1.15,2013-01-13 05:06:00,
2013-01-13 00:12:00,44.4,44.1,30.16,SSE,154,0.0,0.0,99,0.00,,,0.00,Wunderground v.1.15,2013-01-13 05:12:00,
2013-01-13 00:17:00,44.4,44.1,30.16,SSE,154,0.0,0.0,99,0.00,,,0.00,Wunderground v.1.15,2013-01-13 05:17:00,
2013-01-13 00:35:00,44.5,44.2,30.15,SSE,154,0.0,0.0,99,0.00,,,0.00,Wunderground v.1.15,2013-01-13 05:35:00,
2013-01-13 00:46:00,44.5,44.2,30.15,SSE,154,0.0,0.0,99,0.00,,,0.00,Wunderground v.1.15,2013-01-13 05:46:00,
2013-01-13 00:56:00,44.5,44.2,30.15,SSE,154,0.0,0.0,99,0.00,,,0.00,Wunderground v.1.15,2013-01-13 05:56:00,
2013-01-13 01:05:00,44.6,44.3,30.16,SSE,154,0.0,0.0,99,0.00,,,0.00,Wunderground v.1.15,2013-01-13 06:05:00,
2013-01-13 01:15:00,44.6,44.3,30.16,SSE,154,0.0,0.0,99,0.00,,,0.00,Wunderground v.1.15,2013-01-13 06:15:00,
2013-01-13 01:24:00,44.6,44.3,30.16,SSE,154,0.0,0.0,99,0.00,,,0.00,Wunderground v.1.15,2013-01-13 06:24:00,
2013-01-13 01:34:00,44.6,44.3,30.16,SSE,154,1.0,1.0,99,0.00,,,0.00,Wunderground v.1.15,2013-01-13 06:34:00,
2013-01-13 01:48:00,44.6,44.3,30.15,SSE,154,0.0,0.0,99,0.00,,,0.00,Wunderground v.1.15,2013-01-13 06:48:00,
2013-01-13 02:00:00,44.6,44.3,30.15,SSE,154,0.0,0.0,99,0.00,,,0.00,Wunderground v.1.15,2013-01-13 07:00:00,
2013-01-13 02:10:00,44.6,44.3,30.16,SSE,154,0.0,1.0,99,0.00,,,0.00,Wunderground v.1.15,2013-01-13 07:10:00,
2013-01-13 02:16:00,44.5,44.2,30.16,SSE,154,0.0,1.0,99,0.00,,,0.00,Wunderground v.1.15,2013-01-13 07:16:00,
2013-01-13 02:21:00,44.5,44.2,30.16,SSE,154,0.0,0.0,99,0.00,,,0.00,Wunderground v.1.15,2013-01-13 07:21:00,
2013-01-13 02:26:00,44.5,44.2,30.15,SSE,154,0.0,1.0,99,0.00,,,0.00,Wunderground v.1.15,2013-01-13 07:26:00,
2013-01-13 02:36:00,44.4,44.1,30.14,SSE,154,1.0,1.0,99,0.00,,,0.00,Wunderground v.1.15,2013-01-13 07:36:00,
2013-01-13 02:47:00,44.4,44.1,30.15,SSE,154,0.0,0.0,99,0.00,,,0.00,Wunderground v.1.15,2013-01-13 07:47:00,
2013-01-13 02:52:00,44.4,44.1,30.15,SSE,154,0.0,1.0,99,0.00,,,0.00,Wunderground v.1.15,2013-01-13 07:52:00,
2013-01-13 02:57:00,44.4,44.4,30.13,SSE,154,1.0,1.0,100,0.00,,,0.00,Wunderground v.1.15,2013-01-13 07:57:00,
2013-01-13 03:09:00,44.2,44.2,30.13,SSE,154,0.0,0.0,100,0.00,,,0.00,Wunderground v.1.15,2013-01-13 08:09:00,
2013-01-13 03:14:00,44.1,44.1,30.14,SSE,159,1.0,2.0,100,0.00,,,0.00,Wunderground v.1.15,2013-01-13 08:14:00,
2013-01-13 03:27:00,44.0,43.7,30.14,SSE,158,0.0,0.0,99,0.00,,,0.00,Wunderground v.1.15,2013-01-13 08:27:00,
2013-01-13 03:32:00,43.9,43.6,30.14,SSE,158,0.0,1.0,99,0.00,,,0.00,Wunderground v.1.15,2013-01-13 08:32:00,
2013-01-13 03:42:00,44.0,44.0,30.14,SSE,158,0.0,0.0,100,0.00,,,0.00,Wunderground v.1.15,2013-01-13 08:42:00,
2013-01-13 03:47:00,44.0,44.0,30.15,SSE,158,0.0,0.0,100,0.00,,,0.00,Wunderground v.1.15,2013-01-13 08:47:00,
2013-01-13 04:01:00,43.8,43.8,30.14,SSE,158,0.0,0.0,100,0.00,,,0.00,Wunderground v.1.15,2013-01-13 09:01:00,
2013-01-13 04:10:00,43.8,43.8,30.14,SSE,158,0.0,0.0,100,0.00,,,0.00,Wunderground v.1.15,2013-01-13 09:10:00,
2013-01-13 04:20:00,43.7,43.7,30.13,SSE,158,0.0,0.0,100,0.00,,,0.00,Wunderground v.1.15,2013-01-13 09:20:00,
2013-01-13 04:30:00,43.8,43.8,30.13,SSE,158,0.0,0.0,100,0.00,,,0.00,Wunderground v.1.15,2013-01-13 09:30:00,
2013-01-13 04:44:00,43.8,43.8,30.13,SSE,158,0.0,0.0,100,0.00,,,0.00,Wunderground v.1.15,2013-01-13 09:44:00,
2013-01-13 04:51:00,43.9,43.9,30.13,SSE,158,0.0,1.0,100,0.00,,,0.00,Wunderground v.1.15,2013-01-13 09:51:00,
2013-01-13 05:03:00,44.1,44.1,30.13,SSE,158,0.0,0.0,100,0.00,,,0.00,Wunderground v.1.15,2013-01-13 10:03:00,
2013-01-13 05:16:00,44.2,44.2,30.12,SSE,158,0.0,0.0,100,0.00,,,0.00,Wunderground v.1.15,2013-01-13 10:16:00,
2013-01-13 05:27:00,44.2,44.2,30.12,SSE,158,1.0,1.0,100,0.00,,,0.00,Wunderground v.1.15,2013-01-13 10:27:00,
2013-01-13 05:32:00,44.2,44.2,30.12,SSE,158,0.0,2.0,100,0.00,,,0.00,Wunderground v.1.15,2013-01-13 10:32:00,
2013-01-13 05:42:00,44.3,44.3,30.12,SSE,158,0.0,0.0,100,0.00,,,0.00,Wunderground v.1.15,2013-01-13 10:42:00,
2013-01-13 05:47:00,44.3,44.3,30.12,SE,131,0.0,2.0,100,0.00,,,0.00,Wunderground v.1.15,2013-01-13 10:47:00,
2013-01-13 05:52:00,44.3,44.3,30.13,South,173,2.0,3.0,100,0.00,,,0.00,Wunderground v.1.15,2013-01-13 10:52:00,
2013-01-13 06:01:00,44.4,44.4,30.13,South,173,0.0,1.0,100,0.00,,,0.00,Wunderground v.1.15,2013-01-13 11:01:00,
2013-01-13 06:11:00,44.4,44.4,30.12,South,175,0.0,0.0,100,0.00,,,0.00,Wunderground v.1.15,2013-01-13 11:11:00,
2013-01-13 06:23:00,44.4,44.4,30.13,South,175,0.0,0.0,100,0.00,,,0.00,Wunderground v.1.15,2013-01-13 11:23:00,
2013-01-13 06:37:00,44.3,44.3,30.13,SSE,166,1.0,1.0,100,0.00,,,0.00,Wunderground v.1.15,2013-01-13 11:37:00,
2013-01-13 06:42:00,44.2,44.2,30.13,SSE,167,2.0,2.0,100,0.00,,,0.00,Wunderground v.1.15,2013-01-13 11:42:00,
2013-01-13 06:50:00,44.2,44.2,30.13,South,177,0.0,1.0,100,0.00,,,0.00,Wunderground v.1.15,2013-01-13 11:50:00,
2013-01-13 07:04:00,44.2,44.2,30.12,South,175,0.0,0.0,100,0.00,,,0.00,Wunderground v.1.15,2013-01-13 12:04:00,
2013-01-13 07:17:00,44.2,44.2,30.13,South,175,0.0,0.0,100,0.00,,,0.00,Wunderground v.1.15,2013-01-13 12:17:00,
2013-01-13 07:22:00,44.2,44.2,30.13,South,175,0.0,0.0,100,0.00,,,0.00,Wunderground v.1.15,2013-01-13 12:22:00,
2013-01-13 07:33:00,44.2,44.2,30.13,South,175,0.0,0.0,100,0.00,,,0.00,Wunderground v.1.15,2013-01-13 12:33:00,
2013-01-13 07:38:00,44.2,44.2,30.14,South,175,0.0,1.0,100,0.00,,,0.00,Wunderground v.1.15,2013-01-13 12:38:00,
2013-01-13 07:46:00,44.2,44.2,30.14,South,175,0.0,0.0,100,0.00,,,0.00,Wunderground v.1.15,2013-01-13 12:46:00,
2013-01-13 07:51:00,44.2,44.2,30.14,South,175,0.0,1.0,100,0.00,,,0.00,Wunderground v.1.15,2013-01-13 12:51:00,
2013-01-13 07:56:00,44.2,44.2,30.14,South,175,0.0,1.0,100,0.00,,,0.00,Wunderground v.1.15,2013-01-13 12:56:00,
2013-01-13 08:06:00,44.2,44.2,30.14,South,175,0.0,0.0,100,0.00,,,0.00,Wunderground v.1.15,2013-01-13 13:06:00,
2013-01-13 08:17:00,44.2,44.2,30.14,South,175,0.0,0.0,100,0.00,,,0.00,Wunderground v.1.15,2013-01-13 13:17:00,
2013-01-13 08:22:00,44.2,44.2,30.15,South,175,0.0,0.0,100,0.00,,,0.00,Wunderground v.1.15,2013-01-13 13:22:00,
2013-01-13 08:33:00,44.3,44.3,30.15,South,175,0.0,0.0,100,0.00,,,0.00,Wunderground v.1.15,2013-01-13 13:33:00,
2013-01-13 08:38:00,44.3,44.3,30.15,South,175,0.0,0.0,100,0.00,,,0.00,Wunderground v.1.15,2013-01-13 13:38:00,
2013-01-13 08:43:00,44.3,44.3,30.15,South,175,0.0,1.0,100,0.00,,,0.00,Wunderground v.1.15,2013-01-13 13:43:00,
2013-01-13 08:52:00,44.3,44.3,30.15,South,175,0.0,1.0,100,0.00,,,0.00,Wunderground v.1.15,2013-01-13 13:52:00,
2013-01-13 08:57:00,44.3,44.3,30.16,South,175,0.0,1.0,100,0.00,,,0.00,Wunderground v.1.15,2013-01-13 13:57:00,
2013-01-13 09:07:00,44.3,44.3,30.16,South,175,1.0,1.0,100,0.00,,,0.00,Wunderground v.1.15,2013-01-13 14:07:00,
2013-01-13 09:12:00,44.3,44.3,30.16,South,175,0.0,1.0,100,0.00,,,0.00,Wunderground v.1.15,2013-01-13 14:12:00,
2013-01-13 09:22:00,44.3,44.3,30.16,South,175,2.0,2.0,100,0.00,,,0.00,Wunderground v.1.15,2013-01-13 14:22:00,
2013-01-13 09:27:00,44.3,44.3,30.16,South,175,0.0,2.0,100,0.00,,,0.00,Wunderground v.1.15,2013-01-13 14:27:00,
2013-01-13 09:35:00,44.3,44.3,30.16,South,175,0.0,0.0,100,0.00,,,0.00,Wunderground v.1.15,2013-01-13 14:35:00,
2013-01-13 09:40:00,44.3,44.3,30.16,South,175,0.0,1.0,100,0.00,,,0.00,Wunderground v.1.15,2013-01-13 14:40:00,
2013-01-13 09:53:00,44.4,44.4,30.16,ESE,119,1.0,1.0,100,0.00,,,0.00,Wunderground v.1.15,2013-01-13 14:53:00,
2013-01-13 09:58:00,44.4,44.4,30.16,ESE,115,0.0,2.0,100,0.00,,,0.00,Wunderground v.1.15,2013-01-13 14:58:00,
2013-01-13 10:08:00,44.5,44.5,30.16,SE,138,0.0,0.0,100,0.00,,,0.00,Wunderground v.1.15,2013-01-13 15:08:00,
2013-01-13 10:22:00,44.6,44.6,30.16,SE,140,0.0,0.0,100,0.00,,,0.00,Wunderground v.1.15,2013-01-13 15:22:00,
2013-01-13 10:27:00,44.6,44.6,30.16,SE,139,0.0,1.0,100,0.00,,,0.00,Wunderground v.1.15,2013-01-13 15:27:00,
2013-01-13 10:38:00,44.7,44.7,30.16,SE,144,1.0,1.0,100,0.00,,,0.00,Wunderground v.1.15,2013-01-13 15:38:00,
2013-01-13 10:48:00,44.9,44.9,30.16,SE,145,0.0,1.0,100,0.00,,,0.00,Wunderground v.1.15,2013-01-13 15:48:00,
2013-01-13 11:01:00,45.0,45.0,30.16,SE,145,2.0,2.0,100,0.00,,,0.00,Wunderground v.1.15,2013-01-13 16:01:00,
2013-01-13 11:13:00,45.2,45.2,30.15,SE,145,2.0,2.0,100,0.00,,,0.00,Wunderground v.1.15,2013-01-13 16:13:00,
2013-01-13 11:18:00,45.2,45.2,30.15,South,170,3.0,4.0,100,0.00,,,0.00,Wunderground v.1.15,2013-01-13 16:18:00,
2013-01-13 11:24:00,45.3,45.3,30.14,SE,144,0.0,1.0,100,0.00,,,0.00,Wunderground v.1.15,2013-01-13 16:24:00,
2013-01-13 11:38:00,45.5,45.5,30.14,SE,144,1.0,1.0,100,0.00,,,0.00,Wunderground v.1.15,2013-01-13 16:38:00,
2013-01-13 11:43:00,45.5,45.5,30.13,South,179,1.0,3.0,100,0.00,,,0.00,Wunderground v.1.15,2013-01-13 16:43:00,
2013-01-13 11:51:00,45.6,45.6,30.13,SSE,148,1.0,1.0,100,0.00,,,0.00,Wunderground v.1.15,2013-01-13 16:51:00,
2013-01-13 12:01:00,45.9,45.9,30.13,SSE,148,1.0,1.0,100,0.00,,,0.00,Wunderground v.1.15,2013-01-13 17:01:00,
2013-01-13 12:14:00,46.0,45.7,30.12,SSE,156,0.0,1.0,99,0.00,,,0.00,Wunderground v.1.15,2013-01-13 17:14:00,
2013-01-13 12:22:00,46.0,45.7,30.12,SSE,157,0.0,2.0,99,0.00,,,0.00,Wunderground v.1.15,2013-01-13 17:22:00,
2013-01-13 12:27:00,46.1,45.8,30.12,SSE,157,0.0,1.0,99,0.00,,,0.00,Wunderground v.1.15,2013-01-13 17:27:00,
2013-01-13 12:32:00,46.1,45.8,30.12,SSE,157,0.0,1.0,99,0.00,,,0.00,Wunderground v.1.15,2013-01-13 17:32:00,
2013-01-13 12:41:00,46.2,45.9,30.11,SSE,158,0.0,0.0,99,0.00,,,0.00,Wunderground v.1.15,2013-01-13 17:41:00,
2013-01-13 12:46:00,46.2,45.9,30.11,SSE,158,1.0,1.0,99,0.00,,,0.00,Wunderground v.1.15,2013-01-13 17:46:00,
2013-01-13 13:00:00,46.4,45.9,30.10,SSE,157,0.0,0.0,98,0.00,,,0.00,Wunderground v.1.15,2013-01-13 18:00:00,
2013-01-13 13:11:00,46.7,46.2,30.09,SSE,157,0.0,0.0,98,0.00,,,0.00,Wunderground v.1.15,2013-01-13 18:11:00,
2013-01-13 13:16:00,46.8,46.3,30.09,SSE,157,0.0,2.0,98,0.00,,,0.00,Wunderground v.1.15,2013-01-13 18:16:00,
2013-01-13 13:28:00,47.1,46.6,30.09,SSE,158,1.0,1.0,98,0.00,,,0.00,Wunderground v.1.15,2013-01-13 18:28:00,
2013-01-13 13:33:00,47.2,46.4,30.08,SSE,157,0.0,1.0,97,0.00,,,0.00,Wunderground v.1.15,2013-01-13 18:33:00,
2013-01-13 13:45:00,47.3,46.5,30.08,SSE,157,1.0,1.0,97,0.00,,,0.00,Wunderground v.1.15,2013-01-13 18:45:00,
2013-01-13 13:55:00,47.5,46.4,30.08,SE,131,1.0,1.0,96,0.00,,,0.00,Wunderground v.1.15,2013-01-13 18:55:00,
2013-01-13 14:04:00,47.6,46.5,30.08,SE,138,0.0,1.0,96,0.00,,,0.00,Wunderground v.1.15,2013-01-13 19:04:00,
2013-01-13 14:16:00,47.8,46.7,30.08,SE,138,1.0,1.0,96,0.00,,,0.00,Wunderground v.1.15,2013-01-13 19:16:00,
2013-01-13 14:27:00,47.9,46.5,30.09,SE,138,0.0,0.0,95,0.00,,,0.00,Wunderground v.1.15,2013-01-13 19:27:00,
2013-01-13 14:32:00,48.0,46.4,30.09,SE,143,0.0,2.0,94,0.00,,,0.00,Wunderground v.1.15,2013-01-13 19:32:00,
2013-01-13 14:43:00,48.1,46.5,30.09,SE,144,0.0,0.0,94,0.00,,,0.00,Wunderground v.1.15,2013-01-13 19:43:00,
2013-01-13 14:48:00,48.1,46.5,30.09,SE,144,1.0,2.0,94,0.00,,,0.00,Wunderground v.1.15,2013-01-13 19:48:00,
2013-01-13 14:58:00,48.2,46.6,30.08,South,169,1.0,1.0,94,0.00,,,0.00,Wunderground v.1.15,2013-01-13 19:58:00,
2013-01-13 15:03:00,48.3,46.7,30.08,SSE,168,1.0,1.0,94,0.00,,,0.00,Wunderground v.1.15,2013-01-13 20:03:00,
2013-01-13 15:08:00,48.3,46.7,30.08,South,169,0.0,1.0,94,0.00,,,0.00,Wunderground v.1.15,2013-01-13 20:08:00,
2013-01-13 15:13:00,48.4,46.8,30.08,South,169,0.0,1.0,94,0.00,,,0.00,Wunderground v.1.15,2013-01-13 20:13:00,
2013-01-13 15:28:00,48.5,46.6,30.08,SE,138,0.0,1.0,93,0.00,,,0.00,Wunderground v.1.15,2013-01-13 20:28:00,
2013-01-13 15:42:00,48.5,46.6,30.07,SSW,205,2.0,2.0,93,0.00,,,0.00,Wunderground v.1.15,2013-01-13 20:42:00,
2013-01-13 15:47:00,48.5,46.6,30.07,SSW,206,1.0,3.0,93,0.00,,,0.00,Wunderground v.1.15,2013-01-13 20:47:00,
2013-01-13 15:52:00,48.4,46.5,30.07,South,188,1.0,2.0,93,0.00,,,0.00,Wunderground v.1.15,2013-01-13 20:52:00,
2013-01-13 16:05:00,48.3,46.1,30.07,SSE,161,0.0,1.0,92,0.00,,,0.00,Wunderground v.1.15,2013-01-13 21:05:00,
2013-01-13 16:10:00,48.2,46.0,30.06,East,94,1.0,3.0,92,0.00,,,0.00,Wunderground v.1.15,2013-01-13 21:10:00,
2013-01-13 16:23:00,48.0,46.1,30.06,SE,146,1.0,1.0,93,0.00,,,0.00,Wunderground v.1.15,2013-01-13 21:23:00,
2013-01-13 16:28:00,47.9,46.0,30.07,SSW,200,0.0,4.0,93,0.00,,,0.00,Wunderground v.1.15,2013-01-13 21:28:00,
2013-01-13 16:37:00,47.7,45.8,30.06,SSW,200,0.0,1.0,93,0.00,,,0.00,Wunderground v.1.15,2013-01-13 21:37:00,
2013-01-13 16:42:00,47.7,45.8,30.06,SSW,200,0.0,1.0,93,0.00,,,0.00,Wunderground v.1.15,2013-01-13 21:42:00,
2013-01-13 16:51:00,47.5,45.9,30.06,SSW,200,0.0,1.0,94,0.00,,,0.00,Wunderground v.1.15,2013-01-13 21:51:00,
2013-01-13 17:04:00,47.4,45.8,30.06,South,184,1.0,1.0,94,0.00,,,0.00,Wunderground v.1.15,2013-01-13 22:04:00,
2013-01-13 17:15:00,47.3,45.7,30.06,SSW,192,2.0,2.0,94,0.00,,,0.00,Wunderground v.1.15,2013-01-13 22:15:00,
2013-01-13 17:25:00,47.3,45.7,30.06,SSE,166,2.0,2.0,94,0.00,,,0.00,Wunderground v.1.15,2013-01-13 22:25:00,
2013-01-13 17:38:00,47.2,45.8,30.05,SSW,201,1.0,1.0,95,0.00,,,0.00,Wunderground v.1.15,2013-01-13 22:38:00,
2013-01-13 17:43:00,47.2,45.8,30.06,SSW,201,0.0,2.0,95,0.00,,,0.00,Wunderground v.1.15,2013-01-13 22:43:00,
2013-01-13 17:48:00,47.2,45.8,30.06,SSW,201,0.0,0.0,95,0.00,,,0.00,Wunderground v.1.15,2013-01-13 22:48:00,
2013-01-13 17:57:00,47.2,45.8,30.04,SSE,164,2.0,2.0,95,0.00,,,0.00,Wunderground v.1.15,2013-01-13 22:57:00,
2013-01-13 18:02:00,47.2,45.8,30.04,SSE,154,2.0,3.0,95,0.00,,,0.00,Wunderground v.1.15,2013-01-13 23:02:00,
2013-01-13 18:10:00,47.2,45.8,30.04,SE,146,1.0,1.0,95,0.00,,,0.00,Wunderground v.1.15,2013-01-13 23:10:00,
2013-01-13 18:15:00,47.2,45.8,30.04,SE,146,0.0,1.0,95,0.00,,,0.00,Wunderground v.1.15,2013-01-13 23:15:00,
2013-01-13 18:29:00,47.2,46.1,30.06,SE,146,0.0,0.0,96,0.00,,,0.00,Wunderground v.1.15,2013-01-13 23:29:00,
2013-01-13 18:42:00,47.3,46.2,30.05,SE,146,0.0,0.0,96,0.00,,,0.00,Wunderground v.1.15,2013-01-13 23:42:00,
2013-01-13 18:47:00,47.3,46.2,30.05,SE,146,0.0,0.0,96,0.00,,,0.00,Wunderground v.1.15,2013-01-13 23:47:00,
2013-01-13 18:57:00,47.3,46.2,30.04,SE,146,0.0,0.0,96,0.00,,,0.00,Wunderground v.1.15,2013-01-13 23:57:00,
2013-01-13 19:02:00,47.3,46.2,30.05,SE,146,0.0,0.0,96,0.00,,,0.00,Wunderground v.1.15,2013-01-14 00:02:00,
2013-01-13 19:11:00,47.3,46.2,30.06,SE,146,0.0,0.0,96,0.00,,,0.00,Wunderground v.1.15,2013-01-14 00:11:00,
2013-01-13 19:17:00,47.4,46.3,30.05,SE,146,0.0,0.0,96,0.00,,,0.00,Wunderground v.1.15,2013-01-14 00:17:00,
2013-01-13 19:22:00,47.4,46.6,30.04,SE,146,0.0,0.0,97,0.00,,,0.00,Wunderground v.1.15,2013-01-14 00:22:00,
2013-01-13 19:31:00,47.4,46.6,30.04,SE,146,0.0,0.0,97,0.00,,,0.00,Wunderground v.1.15,2013-01-14 00:31:00,
2013-01-13 19:36:00,47.4,46.6,30.05,SE,146,0.0,0.0,97,0.00,,,0.00,Wunderground v.1.15,2013-01-14 00:36:00,
2013-01-13 19:45:00,47.3,46.5,30.05,SE,146,0.0,0.0,97,0.00,,,0.00,Wunderground v.1.15,2013-01-14 00:45:00,
2013-01-13 19:57:00,47.2,46.4,30.05,SE,146,0.0,0.0,97,0.00,,,0.00,Wunderground v.1.15,2013-01-14 00:57:00,
2013-01-13 20:02:00,47.2,46.4,30.04,SE,146,0.0,0.0,97,0.00,,,0.00,Wunderground v.1.15,2013-01-14 01:02:00,
2013-01-13 20:07:00,47.2,46.7,30.04,SE,146,0.0,0.0,98,0.00,,,0.00,Wunderground v.1.15,2013-01-14 01:07:00,
2013-01-13 20:14:00,47.2,46.7,30.05,SE,146,0.0,0.0,98,0.00,,,0.00,Wunderground v.1.15,2013-01-14 01:14:00,
2013-01-13 20:27:00,47.2,46.7,30.05,SE,146,0.0,0.0,98,0.00,,,0.00,Wunderground v.1.15,2013-01-14 01:27:00,
2013-01-13 20:32:00,47.2,46.7,30.03,SE,146,0.0,1.0,98,0.00,,,0.00,Wunderground v.1.15,2013-01-14 01:32:00,
2013-01-13 20:45:00,47.2,46.7,30.04,SE,146,0.0,0.0,98,0.00,,,0.00,Wunderground v.1.15,2013-01-14 01:45:00,
2013-01-13 20:59:00,47.1,46.6,30.03,SE,146,0.0,0.0,98,0.00,,,0.00,Wunderground v.1.15,2013-01-14 01:59:00,
2013-01-13 21:12:00,47.1,46.6,30.03,SE,146,0.0,0.0,98,0.00,,,0.00,Wunderground v.1.15,2013-01-14 02:12:00,
2013-01-13 21:17:00,47.1,46.6,30.03,SE,146,0.0,0.0,98,0.00,,,0.00,Wunderground v.1.15,2013-01-14 02:17:00,
2013-01-13 21:22:00,47.2,46.9,30.03,SE,146,0.0,0.0,99,0.00,,,0.00,Wunderground v.1.15,2013-01-14 02:22:00,
2013-01-13 21:30:00,47.2,46.9,30.03,SE,146,0.0,0.0,99,0.00,,,0.00,Wunderground v.1.15,2013-01-14 02:30:00,
2013-01-13 21:39:00,47.2,46.9,30.02,SE,146,0.0,0.0,99,0.00,,,0.00,Wunderground v.1.15,2013-01-14 02:39:00,
2013-01-13 21:51:00,47.3,47.0,30.02,SE,146,0.0,0.0,99,0.00,,,0.00,Wunderground v.1.15,2013-01-14 02:51:00,
2013-01-13 22:01:00,47.4,47.1,30.03,SE,146,0.0,0.0,99,0.00,,,0.00,Wunderground v.1.15,2013-01-14 03:01:00,
2013-01-13 22:10:00,47.4,47.1,30.03,SE,146,0.0,0.0,99,0.00,,,0.00,Wunderground v.1.15,2013-01-14 03:10:00,
2013-01-13 22:15:00,47.5,47.2,30.03,SE,146,0.0,0.0,99,0.00,,,0.00,Wunderground v.1.15,2013-01-14 03:15:00,
2013-01-13 22:20:00,47.6,47.3,30.04,SE,146,0.0,1.0,99,0.00,,,0.00,Wunderground v.1.15,2013-01-14 03:20:00,
2013-01-13 22:32:00,47.7,47.4,30.03,SE,146,0.0,0.0,99,0.00,,,0.00,Wunderground v.1.15,2013-01-14 03:32:00,
2013-01-13 22:37:00,47.6,47.3,30.03,SE,146,0.0,0.0,99,0.00,,,0.00,Wunderground v.1.15,2013-01-14 03:37:00,
2013-01-13 22:49:00,47.7,47.4,30.03,SE,146,0.0,0.0,99,0.00,,,0.00,Wunderground v.1.15,2013-01-14 03:49:00,
2013-01-13 23:01:00,47.8,47.5,30.02,SE,146,0.0,0.0,99,0.00,,,0.00,Wunderground v.1.15,2013-01-14 04:01:00,
2013-01-13 23:06:00,47.9,47.6,30.02,SE,146,0.0,1.0,99,0.00,,,0.00,Wunderground v.1.15,2013-01-14 04:06:00,
2013-01-13 23:14:00,47.9,47.6,30.03,SE,146,0.0,0.0,99,0.00,,,0.00,Wunderground v.1.15,2013-01-14 04:14:00,
2013-01-13 23:27:00,48.1,47.8,30.02,SE,146,0.0,0.0,99,0.00,,,0.00,Wunderground v.1.15,2013-01-14 04:27:00,
2013-01-13 23:32:00,48.1,47.8,30.03,SE,146,0.0,1.0,99,0.00,,,0.00,Wunderground v.1.15,2013-01-14 04:32:00,
2013-01-13 23:37:00,48.1,47.8,30.02,SE,146,0.0,0.0,99,0.00,,,0.00,Wunderground v.1.15,2013-01-14 04:37:00,
2013-01-13 23:48:00,48.1,47.8,30.02,SE,146,0.0,0.0,99,0.00,,,0.00,Wunderground v.1.15,2013-01-14 04:48:00,
2013-01-13 23:53:00,48.1,48.1,30.02,SE,146,0.0,1.0,100,0.00,,,0.00,Wunderground v.1.15,2013-01-14 04:53:00,
2013-01-13 23:59:00,48.1,48.1,30.02,SE,146,0.0,0.0,100,0.00,,,0.00,Wunderground v.1.15,2013-01-14 04:59:00,